Location: Flitcham
(52.8000°N, 0.5667°E)
Time: 10:59:52
(UTC+00:00)

Cosmos 2266 Rocket - Pass Details

Date: 15 May 2026
Orbit: 933 x 1007 km, 82.9° (Epoch: 8 June)

Event Time Altitude Azimuth Distance (km) Brightness Sun altitude
Rises 22:38:21 0° 351° (N) 3,604 8.7 -16.3°
Reaches altitude 10° 22:40:56 10° 357° (N) 2,655 7.5 -16.4°
Maximum altitude 22:46:48 50° 72° (ENE) 1,181 4.4 -16.7°
Enters shadow 22:50:27 23° 138° (SE) 1,897 5.0 -16.8°
